Simultaneous Nadir Overpasses (SNOs) Predictions

Prediction of SNOs between METOP-B and TERRA Satellite Orbit:

Table of predicted SNOs for the next 14.0 days since TLE Epoch: 6/27/2015
Index Date (METOP-B) Time (METOP-B) Lat,Lon (METOP-B) SZA (METOP-B ) Date (TERRA) Time (TERRA) Lat,Lon (TERRA) SZA (TERRA ) Distance(km) Time Diff (sec)
1 06/29/2015 08:32:17 -81.30, -80.89 119.10 06/29/2015 08:33:08 -81.31, -80.73 119.06 2.86 51
2 06/29/2015 09:22:57 81.31, 86.84 60.95 06/29/2015 09:22:35 81.30, 86.68 60.92 2.95 22
3 07/02/2015 04:06:39 -81.31, -14.25 118.92 07/02/2015 04:07:25 -81.31, -14.31 118.90 1.14 46
4 07/02/2015 04:57:19 81.31, 153.45 61.14 07/02/2015 04:56:51 81.32, 153.44 61.12 0.53 28
5 07/04/2015 23:41:02 -81.31, 51.97 118.73 07/04/2015 23:41:42 -81.30, 51.98 118.71 0.19 40
6 07/
